Location: Chrome
(40.5765°N, 74.2163°W)
Time: 07:46:13
(UTC+00:00)

AQUARIUS - Pass Details

Date: 06 December 2019
Orbit: 650 x 653 km, 98.0° (Epoch: 21 January)

Event Time Altitude Azimuth Distance (km) Brightness Sun altitude
Rises 22:10:25 0° 157° (SSE) 2,960 7.6 -7.8°
Reaches altitude 10° 22:12:39 10° 154° (SSE) 2,054 6.7 -8.1°
Maximum altitude 22:17:03 61° 74° (ENE) 740 4.2 -8.9°
Drops below altitude 10° 22:21:31 10° 354° (N) 2,069 6.6 -9.7°
Sets 22:23:45 0° 352° (N) 2,984 7.4 -10.1°
